Regional Weather Roundup
Issued by NWS Binghamton, NY

Home | Current Version | Previous Version | Text Only | Print | Product List | Glossary On
Versions: 1 2 3 4 5 6 7 8 9 10 11 12 13 14 15 16 17 18 19 20 21 22 23 24 25 26 27
000
ASUS41 KBGM 180110
RWRBGM

REGIONAL WEATHER ROUNDUP
NATIONAL WEATHER SERVICE BINGHAMTON NY
800 PM EST FRI NOV 17 2017

Note: "fair" indicates few or no clouds below 12,000 feet with no
significant weather and/or obstructions to visibility.

* = Station(s) that does not report precipitation, such as rain,
snow, etc, also no thunder or fog.

NYZ009-015>018-022>025-036-037-044>046-055>057-062-180200
...Central New York...

CITY           SKY/WX    TMP DP  RH WIND       PRES   REMARKS
Binghamton     CLOUDY    28  17  63 E3        30.04F
Cortland       FAIR      28  25  86 CALM      30.06F
Dansville      CLOUDY    35  24  64 SE7       30.05F WCI  29
Elmira         CLOUDY    33  25  72 CALM      30.06F
Seneca Falls   CLEAR     32  25  74 CALM      30.09F
Ithaca         CLOUDY    29  22  75 E3        30.06F
Hamilton       CLEAR     25  21  86 CALM      30.06F
Hornell        CLEAR     34  25  69 SE6       30.07F WCI  29
Monticello     CLEAR     29  18  63 W3        30.05F
Penn Yan       CLOUDY    33  22  63 SE5       30.06F WCI  29
Rome           CLEAR     28  20  71 CALM      30.10F
Sidney         CLEAR     27  25  93 CALM      30.08F
Syracuse       PTCLDY    28  22  78 CALM      30.10F
$$

PAZ038>040-043-044-047-048-072-180200
...Northeast Pennsylvania...

CITY           SKY/WX    TMP DP  RH WIND       PRES   REMARKS
Hazleton       MOCLDY    32  14  47 CALM      30.07F
Scranton       PTCLDY    34  18  52 CALM      30.07F
$$
&&
KEY
WCI = Wind Chill Index
VSB = Visibility
HX  = Heat Index
$$




USA.gov is the U.S. government's official web portal to all federal, state and local government web resources and services.